When you browse on this site, cookies collect data to enhance your experience and personalize the content and advertising you see.
Visit our Privacy Policy to learn more. By continuing to use the site, you agree to this use of cookies and data.
  • In Lithuania
  • List of Countries
  • For 7 days
  • Water Temperature
  • Satellite Maps
  • Weather Map
  • Weather Widgets
  • user-avatar
    Login

    Hourly Weather Srosty

    Today, 19 January, Saturday

    Time Temperature Precipitation Wind Pressure Humidity
    00:00 -14°C° 0 mm 4 mps 747 mmHg 79%
    01:00 -12°C° 0 mm 4 mps 746 mmHg 78%
    02:00 -12°C° 0 mm 4 mps 746 mmHg 77%
    03:00 -12°C° 0 mm 5 mps 746 mmHg 77%
    04:00 -12°C° 0 mm 5 mps 746 mmHg 76%
    05:00 -12°C° 0 mm 5 mps 746 mmHg 75%
    06:00 -11°C° 0 mm 5 mps 746 mmHg 74%
    07:00 -11°C° 0 mm 5 mps 746 mmHg 73%
    08:00 -10°C° 0 mm 5 mps 746 mmHg 73%
    09:00 -9°C° 0 mm 6 mps 746 mmHg 72%
    10:00 -8°C° 0 mm 6 mps 746 mmHg 71%
    11:00 -7°C° 0 mm 7 mps 746 mmHg 70%
    12:00 -7°C° 0 mm 7 mps 746 mmHg 70%
    13:00 -6°C° 0 mm 7 mps 746 mmHg 71%
    14:00 -6°C° 0 mm 7 mps 746 mmHg 71%
    15:00 -6°C° 0 mm 7 mps 746 mmHg 71%
    16:00 -7°C° 0 mm 7 mps 746 mmHg 72%
    17:00 -7°C° 0 mm 7 mps 746 mmHg 72%
    18:00 -6°C° 0 mm 6 mps 746 mmHg 72%
    19:00 -6°C° 0 mm 6 mps 746 mmHg 72%
    20:00 -6°C° 0 mm 6 mps 746 mmHg 71%
    21:00 -7°C° 0 mm 7 mps 746 mmHg 71%
    22:00 -7°C° 0 mm 7 mps 746 mmHg 71%
    23:00 -7°C° 0 mm 8 mps 746 mmHg 70%

    Tomorrow, 20 January, Sunday

    Time Temperature Precipitation Wind Pressure Humidity
    00:00 -7°C° 0 mm 8 mps 746 mmHg 71%
    01:00 -8°C° 0 mm 7 mps 746 mmHg 72%
    02:00 -8°C° 0 mm 7 mps 746 mmHg 72%
    03:00 -8°C° 0 mm 7 mps 746 mmHg 72%
    04:00 -9°C° 0 mm 7 mps 746 mmHg 73%
    05:00 -9°C° 0 mm 7 mps 746 mmHg 73%
    06:00 -9°C° 0 mm 6 mps 746 mmHg 73%
    07:00 -9°C° 0 mm 6 mps 746 mmHg 74%
    08:00 -9°C° 0 mm 6 mps 746 mmHg 75%
    09:00 -8°C° 0 mm 6 mps 746 mmHg 74%
    10:00 -8°C° 0 mm 6 mps 746 mmHg 74%
    11:00 -6°C° 0 mm 6 mps 746 mmHg 74%
    12:00 -6°C° 0 mm 5 mps 746 mmHg 75%
    13:00 -5°C° 0 mm 5 mps 745 mmHg 76%
    14:00 -4°C° 0 mm 4 mps 745 mmHg 77%
    15:00 -5°C° 0 mm 3 mps 745 mmHg 79%
    16:00 -7°C° 0 mm 3 mps 744 mmHg 80%
    17:00 -7°C° 0 mm 2 mps 744 mmHg 82%
    18:00 -8°C° 0 mm 2 mps 744 mmHg 81%
    19:00 -8°C° 0 mm 2 mps 743 mmHg 81%
    20:00 -9°C° 0 mm 2 mps 743 mmHg 81%
    21:00 -9°C° 0 mm 2 mps 743 mmHg 80%
    22:00 -12°C° 0 mm 3 mps 742 mmHg 79%
    23:00 -12°C° 0 mm 3 mps 742 mmHg 78%

    Day after tomorrow, 21 January, Monday

    Time Temperature Precipitation Wind Pressure Humidity
    00:00 -12°C° 0 mm 3 mps 742 mmHg 75%
    01:00 -10°C° 0 mm 3 mps 741 mmHg 72%
    02:00 -10°C° 0 mm 3 mps 741 mmHg 70%
    03:00 -11°C° 0 mm 4 mps 741 mmHg 72%
    04:00 -10°C° 0 mm 4 mps 741 mmHg 74%
    05:00 -11°C° 0 mm 5 mps 741 mmHg 77%
    06:00 -11°C° 0 mm 5 mps 741 mmHg 76%
    07:00 -10°C° 0 mm 5 mps 741 mmHg 75%
    08:00 -10°C° 0 mm 6 mps 741 mmHg 75%
    09:00 -10°C° 0 mm 6 mps 741 mmHg 77%
    10:00 -9°C° 0 mm 6 mps 741 mmHg 78%
    11:00 -9°C° 0 mm 6 mps 741 mmHg 80%
    12:00 -8°C° 0.1 mm 6 mps 741 mmHg 83%
    13:00 -8°C° 0.1 mm 6 mps 742 mmHg 86%
    14:00 -6°C° 0.1 mm 6 mps 742 mmHg 89%
    15:00 -6°C° 0.3 mm 6 mps 743 mmHg 90%
    16:00 -5°C° 0.3 mm 6 mps 743 mmHg 92%
    17:00 -5°C° 0.3 mm 5 mps 744 mmHg 93%
    18:00 -5°C° 0.2 mm 5 mps 744 mmHg 93%
    19:00 -4°C° 0.2 mm 5 mps 745 mmHg 93%
    20:00 -4°C° 0.2 mm 5 mps 745 mmHg 93%
    21:00 -4°C° 0.1 mm 4 mps 746 mmHg 93%
    22:00 -4°C° 0.1 mm 4 mps 746 mmHg 93%
    23:00 -4°C° 0.1 mm 4 mps 747 mmHg 94%

    22 January, Tuesday

    Time Temperature Precipitation Wind Pressure Humidity
    00:00 -5°C° 0.1 mm 3 mps 747 mmHg 95%
    01:00 -6°C° 0.1 mm 2 mps 748 mmHg 95%
    02:00 -7°C° 0.1 mm 2 mps 748 mmHg 96%
    03:00 -7°C° 0 mm 2 mps 749 mmHg 96%
    04:00 -7°C° 0 mm 1 mps 749 mmHg 96%
    05:00 -7°C° 0 mm 1 mps 749 mmHg 96%
    06:00 -8°C° 0 mm 1 mps 749 mmHg 96%
    07:00 -8°C° 0 mm 1 mps 749 mmHg 96%
    08:00 -9°C° 0 mm 1 mps 750 mmHg 96%
    09:00 -8°C° 0 mm 1 mps 750 mmHg 96%
    10:00 -7°C° 0 mm 1 mps 750 mmHg 95%
    11:00 -6°C° 0 mm 1 mps 750 mmHg 94%
    12:00 -4°C° 0 mm 1 mps 749 mmHg 94%
    13:00 -4°C° 0 mm 1 mps 749 mmHg 94%
    14:00 -4°C° 0 mm 1 mps 749 mmHg 94%
    15:00 -4°C° 0 mm 1 mps 749 mmHg 94%
    16:00 -6°C° 0 mm 2 mps 749 mmHg 94%
    17:00 -6°C° 0 mm 2 mps 749 mmHg 94%
    18:00 -7°C° 0 mm 2 mps 749 mmHg 95%
    19:00 -7°C° 0 mm 2 mps 749 mmHg 95%
    20:00 -7°C° 0 mm 2 mps 749 mmHg 95%
    21:00 -8°C° 0 mm 2 mps 749 mmHg 96%
    22:00 -8°C° 0 mm 2 mps 748 mmHg 96%
    23:00 -8°C° 0 mm 2 mps 748 mmHg 96%

    23 January, Wednesday

    Time Temperature Precipitation Wind Pressure Humidity
    00:00 -9°C° 0 mm 2 mps 748 mmHg 96%
    01:00 -9°C° 0 mm 2 mps 748 mmHg 96%
    02:00 -9°C° 0 mm 2 mps 748 mmHg 96%
    03:00 -10°C° 0 mm 2 mps 748 mmHg 96%
    04:00 -12°C° 0 mm 2 mps 748 mmHg 96%
    05:00 -13°C° 0 mm 2 mps 748 mmHg 96%
    06:00 -14°C° 0 mm 2 mps 748 mmHg 96%
    07:00 -14°C° 0 mm 2 mps 748 mmHg 96%
    08:00 -13°C° 0 mm 1 mps 748 mmHg 96%
    09:00 -13°C° 0 mm 2 mps 748 mmHg 96%
    10:00 -12°C° 0 mm 2 mps 749 mmHg 95%
    11:00 -10°C° 0 mm 2 mps 749 mmHg 94%
    12:00 -9°C° 0 mm 1 mps 749 mmHg 94%
    13:00 -8°C° 0 mm 1 mps 749 mmHg 94%
    14:00 -8°C° 0 mm 1 mps 749 mmHg 93%
    15:00 -9°C° 0 mm 1 mps 749 mmHg 94%
    16:00 -10°C° 0 mm 1 mps 749 mmHg 96%
    17:00 -11°C° 0 mm 1 mps 749 mmHg 97%
    18:00 -12°C° 0 mm 1 mps 749 mmHg 97%
    19:00 -12°C° 0 mm 1 mps 749 mmHg 97%
    20:00 -12°C° 0 mm 0 mps 749 mmHg 97%
    21:00 -12°C° 0 mm 0 mps 749 mmHg 97%
    22:00 -12°C° 0 mm 0 mps 750 mmHg 97%
    23:00 -13°C° 0 mm 0 mps 750 mmHg 97%

    24 January, Thursday

    Time Temperature Precipitation Wind Pressure Humidity
    00:00 -13°C° 0 mm 0 mps 750 mmHg 97%
    01:00 -14°C° 0 mm 0 mps 750 mmHg 97%
    02:00 -14°C° 0 mm 0 mps 750 mmHg 98%
    03:00 -14°C° 0 mm 0 mps 750 mmHg 97%
    04:00 -14°C° 0 mm 0 mps 751 mmHg 97%
    05:00 -14°C° 0 mm 0 mps 751 mmHg 96%
    06:00 -13°C° 0 mm 0 mps 751 mmHg 96%
    07:00 -13°C° 0 mm 1 mps 751 mmHg 96%
    08:00 -13°C° 0 mm 1 mps 752 mmHg 96%
    09:00 -12°C° 0 mm 1 mps 752 mmHg 95%
    10:00 -10°C° 0 mm 1 mps 752 mmHg 94%
    11:00 -9°C° 0 mm 1 mps 752 mmHg 94%
    12:00 -8°C° 0 mm 1 mps 752 mmHg 94%
    13:00 -8°C° 0 mm 1 mps 752 mmHg 94%
    14:00 -8°C° 0 mm 1 mps 751 mmHg 94%
    15:00 -9°C° 0 mm 1 mps 751 mmHg 95%
    16:00 -12°C° 0 mm 2 mps 751 mmHg 96%
    17:00 -13°C° 0 mm 2 mps 751 mmHg 97%
    18:00 -13°C° 0 mm 2 mps 751 mmHg 97%
    19:00 -13°C° 0 mm 2 mps 751 mmHg 97%
    20:00 -13°C° 0 mm 2 mps 751 mmHg 97%
    21:00 -14°C° 0 mm 2 mps 750 mmHg 96%
    22:00 -14°C° 0 mm 2 mps 750 mmHg 96%
    23:00 -14°C° 0 mm 2 mps 750 mmHg 95%
    Show more